| time (UTC) | temp F | wind direction | speed knots | gust knots | rain 1hr in | rain 24hr in | rain mn in | humidity % | barometer mb |
| 20260504150958 | 70 | 101 | 0.0 | 0.9 | 0.00 | 0.00 | 0.00 | 38 | 1015.6 |
| 20260504150455 | 70 | 227 | 2.6 | 3.5 | 0.00 | 0.00 | 0.00 | 39 | 1015.5 |
| 20260504140916 | 66 | 204 | 0.9 | 0.9 | 0.00 | 0.00 | 0.00 | 43 | 1016.1 |
| 20260504140412 | 65 | 110 | 0.0 | 0.0 | 0.00 | 0.00 | 0.00 | 43 | 1015.9 |
| 20260504130337 | 59 | 116 | 0.9 | 2.6 | 0.00 | 0.00 | 0.00 | 51 | 1016.7 |
| 20260504120300 | 55 | 272 | 1.7 | 1.7 | 0.00 | 0.00 | 0.00 | 57 | 1016.8 |
| 20260504110224 | 52 | 139 | 0.0 | 0.9 | 0.00 | 0.00 | 0.00 | 60 | 1017.1 |
| 20260504100148 | 53 | 153 | 0.0 | 0.0 | 0.00 | 0.00 | 0.00 | 60 | 1016.9 |
| 20260504090110 | 53 | 4 | 1.7 | 1.7 | 0.00 | 0.00 | 0.00 | 57 | 1016.9 |
| 20260504081541 | 53 | 152 | 0.0 | 0.0 | 0.00 | 0.00 | 0.00 | 61 | 1017.2 |
| 20260504081036 | 53 | 135 | 0.0 | 0.9 | 0.00 | 0.00 | 0.00 | 61 | 1017.2 |
| 20260504080533 | 53 | 156 | 0.0 | 0.9 | 0.00 | 0.00 | 0.00 | 62 | 1017.1 |
| 20260504050340 | 51 | 160 | 0.0 | 0.0 | 0.00 | 0.00 | 0.00 | 60 | 1017.5 |
| 20260504045837 | 51 | 161 | 0.0 | 0.0 | 0.00 | 0.00 | 0.00 | 60 | 1017.5 |
| 20260504045332 | 51 | 160 | 0.0 | 0.0 | 0.00 | 0.00 | 0.00 | 60 | 1017.5 |
| 20260504044829 | 51 | 160 | 0.0 | 0.0 | 0.00 | 0.00 | 0.00 | 60 | 1017.6 |
| 20260504044327 | 51 | 165 | 0.0 | 0.0 | 0.00 | 0.00 | 0.00 | 60 | 1017.6 |
| 20260504043824 | 51 | 162 | 0.0 | 0.0 | 0.00 | 0.00 | 0.00 | 59 | 1017.5 |
| 20260504043321 | 51 | 156 | 0.0 | 0.0 | 0.00 | 0.00 | 0.00 | 59 | 1017.4 |
| 20260504042818 | 51 | 153 | 0.0 | 0.0 | 0.00 | 0.00 | 0.00 | 59 | 1017.3 |
| 20260504042314 | 51 | 158 | 0.0 | 0.0 | 0.00 | 0.00 | 0.00 | 59 | 1017.4 |
| 20260504041811 | 50 | 159 | 0.0 | 0.0 | 0.00 | 0.00 | 0.00 | 59 | 1017.5 |
| 20260504041307 | 51 | 152 | 0.0 | 0.0 | 0.00 | 0.00 | 0.00 | 59 | 1017.2 |
| 20260504040803 | 51 | 144 | 0.0 | 0.0 | 0.00 | 0.00 | 0.00 | 58 | 1017.6 |
| 20260504040301 | 50 | 153 | 0.0 | 0.0 | 0.00 | 0.00 | 0.00 | 58 | 1017.4 |
| 20260504035757 | 51 | 154 | 0.0 | 0.0 | 0.00 | 0.00 | 0.00 | 58 | 1017.6 |
| 20260504035254 | 51 | 157 | 0.0 | 0.0 | 0.00 | 0.00 | 0.00 | 57 | 1017.6 |
| 20260504034751 | 51 | 160 | 0.0 | 0.0 | 0.00 | 0.00 | 0.00 | 56 | 1017.5 |
| 20260504034249 | 52 | 160 | 0.0 | 0.0 | 0.00 | 0.00 | 0.00 | 55 | 1017.4 |
| 20260504033746 | 52 | 157 | 0.0 | 0.0 | 0.00 | 0.00 | 0.00 | 54 | 1017.4 |
| 20260504033244 | 51 | 167 | 0.0 | 0.0 | 0.00 | 0.00 | 0.00 | 54 | 1017.3 |
| 20260504032740 | 52 | 153 | 0.0 | 0.0 | 0.00 | 0.00 | 0.00 | 54 | 1017.3 |
| 20260504032237 | 52 | 143 | 0.0 | 0.0 | 0.00 | 0.00 | 0.00 | 54 | 1017.1 |
| 20260504031734 | 51 | 143 | 0.0 | 0.0 | 0.00 | 0.00 | 0.00 | 54 | 1017.3 |
| 20260504031232 | 52 | 157 | 0.0 | 0.0 | 0.00 | 0.00 | 0.00 | 52 | 1017.4 |
| 20260504030727 | 52 | 157 | 0.0 | 0.0 | 0.00 | 0.00 | 0.00 | 53 | 1017.2 |
| 20260504030225 | 52 | 158 | 0.0 | 0.0 | 0.00 | 0.00 | 0.00 | 53 | 1017.3 |
| 20260504025721 | 53 | 159 | 0.0 | 0.0 | 0.00 | 0.00 | 0.00 | 53 | 1017.1 |
| 20260504025218 | 53 | 165 | 0.0 | 0.0 | 0.00 | 0.00 | 0.00 | 53 | 1017.1 |
| 20260504024715 | 53 | 167 | 0.0 | 0.0 | 0.00 | 0.00 | 0.00 | 52 | 1017.0 |
| 20260504024211 | 53 | 162 | 0.0 | 0.0 | 0.00 | 0.00 | 0.00 | 51 | 1016.9 |
| 20260504023708 | 53 | 157 | 0.0 | 0.0 | 0.00 | 0.00 | 0.00 | 51 | 1017.1 |
| 20260504023204 | 53 | 174 | 0.0 | 0.0 | 0.00 | 0.00 | 0.00 | 51 | 1017.2 |
| 20260504022701 | 53 | 158 | 0.0 | 0.0 | 0.00 | 0.00 | 0.00 | 51 | 1017.0 |
| 20260504022156 | 53 | 166 | 0.0 | 0.0 | 0.00 | 0.00 | 0.00 | 50 | 1017.1 |
| 20260504021655 | 53 | 156 | 0.0 | 0.0 | 0.00 | 0.00 | 0.00 | 49 | 1016.9 |
| 20260504021151 | 53 | 160 | 0.0 | 0.0 | 0.00 | 0.00 | 0.00 | 48 | 1017.0 |
| 20260504020648 | 53 | 166 | 0.0 | 0.0 | 0.00 | 0.00 | 0.00 | 49 | 1016.8 |
| 20260504020144 | 53 | 152 | 0.0 | 0.0 | 0.00 | 0.00 | 0.00 | 48 | 1016.7 |
| 20260504015641 | 54 | 164 | 0.0 | 0.0 | 0.00 | 0.00 | 0.00 | 47 | 1016.7 |
| 20260504015137 | 54 | 165 | 0.0 | 0.0 | 0.00 | 0.00 | 0.00 | 47 | 1016.9 |
| 20260504014633 | 54 | 156 | 0.0 | 0.0 | 0.00 | 0.00 | 0.00 | 46 | 1016.8 |
| 20260504014130 | 55 | 163 | 0.0 | 0.0 | 0.00 | 0.00 | 0.00 | 46 | 1016.5 |
| 20260504013628 | 55 | 160 | 0.0 | 0.0 | 0.00 | 0.00 | 0.00 | 43 | 1016.6 |
| 20260504013125 | 55 | 157 | 0.0 | 0.0 | 0.00 | 0.00 | 0.00 | 44 | 1016.5 |
| 20260504012622 | 55 | 159 | 0.0 | 0.0 | 0.00 | 0.00 | 0.00 | 43 | 1016.7 |
| 20260504012120 | 55 | 158 | 0.0 | 0.0 | 0.00 | 0.00 | 0.00 | 43 | 1016.6 |
| 20260504011616 | 56 | 166 | 0.0 | 0.0 | 0.00 | 0.00 | 0.00 | 42 | 1016.6 |
| 20260504011113 | 56 | 159 | 0.0 | 0.0 | 0.00 | 0.00 | 0.00 | 41 | 1016.3 |
| 20260504010608 | 56 | 155 | 0.0 | 0.0 | 0.00 | 0.00 | 0.00 | 41 | 1016.5 |
| 20260504010105 | 57 | 154 | 0.0 | 0.0 | 0.00 | 0.00 | 0.00 | 40 | 1016.6 |
| 20260504005602 | 57 | 156 | 0.0 | 0.0 | 0.00 | 0.00 | 0.00 | 39 | 1016.4 |
| 20260504005059 | 57 | 155 | 0.0 | 0.0 | 0.00 | 0.00 | 0.00 | 38 | 1016.4 |
| 20260504004556 | 57 | 154 | 0.0 | 0.0 | 0.00 | 0.00 | 0.00 | 39 | 1016.4 |
| 20260504004053 | 58 | 153 | 0.0 | 0.0 | 0.00 | 0.00 | 0.00 | 38 | 1016.3 |
| 20260504003549 | 59 | 150 | 0.0 | 0.0 | 0.00 | 0.00 | 0.00 | 37 | 1016.1 |
| 20260504003046 | 59 | 150 | 0.0 | 0.0 | 0.00 | 0.00 | 0.00 | 35 | 1016.2 |
| 20260504002543 | 59 | 165 | 0.0 | 0.0 | 0.00 | 0.00 | 0.00 | 35 | 1016.1 |
| 20260504002041 | 60 | 174 | 0.0 | 0.0 | 0.00 | 0.00 | 0.00 | 33 | 1016.2 |
| 20260504001538 | 60 | 172 | 0.0 | 0.0 | 0.00 | 0.00 | 0.00 | 33 | 1016.2 |
| 20260504001034 | 60 | 159 | 0.0 | 0.0 | 0.00 | 0.00 | 0.00 | 32 | 1016.1 |
| 20260504000532 | 61 | 177 | 0.0 | 0.0 | 0.00 | 0.00 | 0.00 | 31 | 1016.1 |
| 20260504000029 | 61 | 160 | 0.0 | 0.0 | 0.00 | 0.00 | 0.00 | 31 | 1016.2 |
| 20260503235527 | 62 | 164 | 0.0 | 1.7 | 0.00 | 0.00 | 0.00 | 31 | 1015.9 |
| 20260503235024 | 62 | 212 | 0.9 | 5.2 | 0.00 | 0.00 | 0.00 | 30 | 1016.0 |
| 20260503234521 | 62 | 225 | 1.7 | 1.7 | 0.00 | 0.00 | 0.00 | 30 | 1016.0 |
| 20260503234020 | 62 | 227 | 0.9 | 1.7 | 0.00 | 0.00 | 0.00 | 30 | 1016.1 |
| 20260503233515 | 62 | 212 | 0.0 | 2.6 | 0.00 | 0.00 | 0.00 | 30 | 1015.8 |
| 20260503233011 | 62 | 285 | 2.6 | 3.5 | 0.00 | 0.00 | 0.00 | 30 | 1015.7 |
| 20260503232509 | 63 | 195 | 0.9 | 2.6 | 0.00 | 0.00 | 0.00 | 30 | 1015.8 |
| 20260503232006 | 63 | 155 | 0.0 | 0.9 | 0.00 | 0.00 | 0.00 | 30 | 1015.8 |
| 20260503231504 | 63 | 180 | 0.9 | 1.7 | 0.00 | 0.00 | 0.00 | 29 | 1015.7 |
| 20260503231000 | 63 | 261 | 0.9 | 1.7 | 0.00 | 0.00 | 0.00 | 29 | 1015.7 |
| 20260503230457 | 63 | 212 | 0.9 | 1.7 | 0.00 | 0.00 | 0.00 | 29 | 1015.6 |
| 20260503225954 | 63 | 148 | 1.7 | 2.6 | 0.00 | 0.00 | 0.00 | 29 | 1015.6 |
| 20260503225451 | 64 | 155 | 0.0 | 3.5 | 0.00 | 0.00 | 0.00 | 29 | 1015.6 |
| 20260503224946 | 64 | 163 | 0.0 | 1.7 | 0.00 | 0.00 | 0.00 | 30 | 1015.6 |
| 20260503224444 | 64 | 150 | 0.9 | 0.9 | 0.00 | 0.00 | 0.00 | 28 | 1015.7 |
| 20260503223942 | 64 | 208 | 0.0 | 1.7 | 0.00 | 0.00 | 0.00 | 28 | 1015.8 |
| 20260503223439 | 65 | 217 | 0.9 | 1.7 | 0.00 | 0.00 | 0.00 | 27 | 1015.8 |
| 20260503222934 | 65 | 88 | 1.7 | 5.2 | 0.00 | 0.00 | 0.00 | 27 | 1015.4 |
| 20260503222433 | 66 | 149 | 1.7 | 3.5 | 0.00 | 0.00 | 0.00 | 26 | 1015.6 |
| 20260503221931 | 66 | 230 | 2.6 | 2.6 | 0.00 | 0.00 | 0.00 | 26 | 1015.7 |
| 20260503221429 | 67 | 186 | 1.7 | 3.5 | 0.00 | 0.00 | 0.00 | 26 | 1015.6 |
| 20260503220926 | 66 | 183 | 0.9 | 2.6 | 0.00 | 0.00 | 0.00 | 26 | 1015.8 |
| 20260503220422 | 66 | 221 | 2.6 | 3.5 | 0.00 | 0.00 | 0.00 | 26 | 1015.5 |
| 20260503215919 | 65 | 191 | 0.9 | 2.6 | 0.00 | 0.00 | 0.00 | 27 | 1015.8 |
| 20260503215416 | 65 | 219 | 4.3 | 7.0 | 0.00 | 0.00 | 0.00 | 27 | 1015.6 |
| 20260503214914 | 66 | 167 | 1.7 | 3.5 | 0.00 | 0.00 | 0.00 | 27 | 1015.9 |
| 20260503214411 | 66 | 193 | 1.7 | 5.2 | 0.00 | 0.00 | 0.00 | 26 | 1015.9 |
| 20260503213908 | 66 | 177 | 0.0 | 3.5 | 0.00 | 0.00 | 0.00 | 27 | 1015.8 |
| 20260503213406 | 66 | 216 | 3.5 | 5.2 | 0.00 | 0.00 | 0.00 | 26 | 1015.9 |
| 20260503212902 | 66 | 199 | 1.7 | 3.5 | 0.00 | 0.00 | 0.00 | 26 | 1015.8 |
| 20260503212400 | 65 | 146 | 1.7 | 5.2 | 0.00 | 0.00 | 0.00 | 27 | 1015.9 |
| 20260503211857 | 65 | 253 | 1.7 | 3.5 | 0.00 | 0.00 | 0.00 | 27 | 1015.7 |
| 20260503211354 | 66 | 243 | 0.9 | 5.2 | 0.00 | 0.00 | 0.00 | 27 | 1015.9 |
| 20260503210849 | 67 | 166 | 0.0 | 3.5 | 0.00 | 0.00 | 0.00 | 27 | 1016.0 |
| 20260503210347 | 67 | 173 | 0.9 | 2.6 | 0.00 | 0.00 | 0.00 | 27 | 1015.8 |
| 20260503205841 | 66 | 185 | 2.6 | 3.5 | 0.00 | 0.00 | 0.00 | 28 | 1016.2 |
| 20260503205339 | 66 | 134 | 0.9 | 3.5 | 0.00 | 0.00 | 0.00 | 28 | 1015.9 |
| 20260503204835 | 66 | 163 | 1.7 | 8.7 | 0.00 | 0.00 | 0.00 | 28 | 1016.1 |
| 20260503204332 | 68 | 252 | 2.6 | 3.5 | 0.00 | 0.00 | 0.00 | 27 | 1015.9 |
| 20260503203829 | 67 | 195 | 0.9 | 1.7 | 0.00 | 0.00 | 0.00 | 26 | 1016.2 |
| 20260503203327 | 65 | 164 | 1.7 | 3.5 | 0.00 | 0.00 | 0.00 | 29 | 1016.0 |
| 20260503202823 | 64 | 253 | 2.6 | 6.1 | 0.00 | 0.00 | 0.00 | 28 | 1016.0 |
| 20260503202322 | 65 | 193 | 0.9 | 5.2 | 0.00 | 0.00 | 0.00 | 28 | 1016.1 |
| 20260503201820 | 67 | 172 | 1.7 | 2.6 | 0.00 | 0.00 | 0.00 | 27 | 1016.4 |
| 20260503201316 | 65 | 217 | 3.5 | 5.2 | 0.00 | 0.00 | 0.00 | 29 | 1016.4 |
| 20260503200814 | 64 | 305 | 2.6 | 7.0 | 0.00 | 0.00 | 0.00 | 29 | 1016.4 |
| 20260503200310 | 66 | 256 | 2.6 | 3.5 | 0.00 | 0.00 | 0.00 | 28 | 1016.6 |
| 20260503195807 | 66 | 249 | 3.5 | 5.2 | 0.00 | 0.00 | 0.00 | 28 | 1016.6 |
| 20260503195304 | 66 | 217 | 3.5 | 7.8 | 0.00 | 0.00 | 0.00 | 29 | 1016.7 |
| 20260503194801 | 64 | 284 | 4.3 | 7.0 | 0.00 | 0.00 | 0.00 | 28 | 1016.6 |
| 20260503194256 | 65 | 247 | 4.3 | 7.0 | 0.00 | 0.00 | 0.00 | 28 | 1016.9 |
| 20260503193753 | 64 | 190 | 1.7 | 7.0 | 0.00 | 0.00 | 0.00 | 30 | 1016.9 |
| 20260503193249 | 66 | 162 | 0.0 | 2.6 | 0.00 | 0.00 | 0.00 | 30 | 1016.9 |
| 20260503192745 | 65 | 190 | 0.9 | 3.5 | 0.00 | 0.00 | 0.00 | 30 | 1017.1 |
| 20260503192240 | 65 | 164 | 1.7 | 3.5 | 0.00 | 0.00 | 0.00 | 29 | 1017.1 |
| 20260503191737 | 63 | 204 | 2.6 | 6.1 | 0.00 | 0.00 | 0.00 | 31 | 1017.0 |
| 20260503191234 | 64 | 269 | 4.3 | 6.1 | 0.00 | 0.00 | 0.00 | 31 | 1017.3 |
| 20260503190731 | 64 | 183 | 1.7 | 2.6 | 0.00 | 0.00 | 0.00 | 30 | 1017.4 |
| 20260503190222 | 63 | 221 | 0.9 | 1.7 | 0.00 | 0.00 | 0.00 | 30 | 1017.2 |
| 20260503185720 | 62 | 221 | 4.3 | 7.0 | 0.00 | 0.00 | 0.00 | 31 | 1017.3 |
| 20260503185215 | 63 | 290 | 6.1 | 7.8 | 0.00 | 0.00 | 0.00 | 31 | 1017.4 |
| 20260503184709 | 65 | 249 | 3.5 | 3.5 | 0.00 | 0.00 | 0.00 | 30 | 1017.6 |
| 20260503184206 | 65 | 134 | 0.9 | 2.6 | 0.00 | 0.00 | 0.00 | 32 | 1017.7 |
| 20260503183703 | 63 | 217 | 4.3 | 7.0 | 0.00 | 0.00 | 0.00 | 32 | 1017.6 |
| 20260503183200 | 63 | 124 | 1.7 | 5.2 | 0.00 | 0.00 | 0.00 | 33 | 1017.7 |
| 20260503182658 | 62 | 210 | 1.7 | 6.1 | 0.00 | 0.00 | 0.00 | 32 | 1017.6 |
| 20260503182156 | 62 | 220 | 3.5 | 6.1 | 0.00 | 0.00 | 0.00 | 32 | 1017.6 |
| 20260503181652 | 64 | 215 | 3.5 | 7.0 | 0.00 | 0.00 | 0.00 | 31 | 1017.8 |
| 20260503181149 | 64 | 235 | 1.7 | 1.7 | 0.00 | 0.00 | 0.00 | 30 | 1017.7 |
| 20260503180646 | 61 | 265 | 0.9 | 5.2 | 0.00 | 0.00 | 0.00 | 33 | 1017.9 |
| 20260503180144 | 63 | 227 | 1.7 | 3.5 | 0.00 | 0.00 | 0.00 | 31 | 1017.9 |
| 20260503175641 | 63 | 153 | 0.0 | 2.6 | 0.00 | 0.00 | 0.00 | 34 | 1017.9 |
| 20260503175138 | 61 | 206 | 0.0 | 5.2 | 0.00 | 0.00 | 0.00 | 34 | 1018.0 |
| 20260503174634 | 60 | 257 | 1.7 | 1.7 | 0.00 | 0.00 | 0.00 | 33 | 1018.1 |
| 20260503174132 | 61 | 172 | 0.9 | 2.6 | 0.00 | 0.00 | 0.00 | 32 | 1018.1 |
| 20260503173627 | 62 | 139 | 0.0 | 1.7 | 0.00 | 0.00 | 0.00 | 37 | 1018.1 |
| 20260503173124 | 61 | 185 | 1.7 | 6.1 | 0.00 | 0.00 | 0.00 | 33 | 1017.9 |
| 20260503172620 | 62 | 208 | 0.9 | 2.6 | 0.00 | 0.00 | 0.00 | 31 | 1018.1 |
| 20260503172118 | 60 | 142 | 1.7 | 2.6 | 0.00 | 0.00 | 0.00 | 32 | 1018.2 |
| 20260503171614 | 61 | 214 | 0.9 | 3.5 | 0.00 | 0.00 | 0.00 | 33 | 1018.1 |
| 20260503171112 | 61 | 238 | 0.9 | 3.5 | 0.00 | 0.00 | 0.00 | 33 | 1018.3 |
| 20260503170609 | 61 | 343 | 2.6 | 3.5 | 0.00 | 0.00 | 0.00 | 32 | 1018.2 |
| 20260503170105 | 60 | 145 | 0.0 | 2.6 | 0.00 | 0.00 | 0.00 | 35 | 1018.1 |